Location: Chimay
(50.0486°N, 4.3171°E)
Time: 17:53:17
(UTC+00:00)

SL-16 R/B - Pass Details

Date: 08 August 2020
Orbit: 843 x 845 km, 71.0° (Epoch: 25 September)

Event Time Altitude Azimuth Distance (km) Brightness Sun altitude
Rises 19:48:37 0° 333° (NNW) 3,417 6.6 -5.8°
Reaches altitude 10° 19:51:50 10° 351° (N) 2,479 5.3 -6.2°
Maximum altitude 19:55:49 19° 35° (NE) 1,917 4.1 -6.7°
Drops below altitude 10° 19:59:46 10° 80° (E) 2,472 4.2 -7.3°
Enters shadow 20:01:48 - 93° (E) 3,037 4.6 -7.5°
